Hourly Weather Kiyno

Today, 27 July, Tuesday

Time Temperature Precipitation Wind Pressure Humidity
00:00 +16°C° 0.2 mm 2 mps 748 mmHg 82%
01:00 +15°C° 0.2 mm 1 mps 748 mmHg 85%
02:00 +15°C° 0.2 mm 1 mps 748 mmHg 87%
03:00 +15°C° 0.1 mm 1 mps 748 mmHg 88%
04:00 +15°C° 0.1 mm 1 mps 748 mmHg 88%
05:00 +16°C° 0.1 mm 1 mps 748 mmHg 89%
06:00 +19°C° 0.1 mm 1 mps 748 mmHg 82%
07:00 +19°C° 0.1 mm 2 mps 748 mmHg 75%
08:00 +21°C° 0.1 mm 2 mps 748 mmHg 68%
09:00 +24°C° 0 mm 2 mps 748 mmHg 59%
10:00 +26°C° 0 mm 2 mps 747 mmHg 50%
11:00 +27°C° 0 mm 2 mps 747 mmHg 41%
12:00 +27°C° 0 mm 2 mps 747 mmHg 42%
13:00 +27°C° 0 mm 2 mps 747 mmHg 44%
14:00 +27°C° 0 mm 1 mps 746 mmHg 45%
15:00 +25°C° 0.3 mm 2 mps 746 mmHg 54%
16:00 +24°C° 0.3 mm 2 mps 746 mmHg 63%
17:00 +21°C° 0.3 mm 2 mps 746 mmHg 71%
18:00 +20°C° 0.6 mm 2 mps 746 mmHg 78%
19:00 +20°C° 0.6 mm 1 mps 746 mmHg 84%
20:00 +18°C° 0.6 mm 1 mps 746 mmHg 91%
21:00 +18°C° 0 mm 1 mps 746 mmHg 91%
22:00 +16°C° 0 mm 1 mps 746 mmHg 92%
23:00 +15°C° 0 mm 1 mps 746 mmHg 92%

Tomorrow, 28 July, Wednesday

Time Temperature Precipitation Wind Pressure Humidity
00:00 +15°C° 0 mm 1 mps 745 mmHg 93%
01:00 +15°C° 0 mm 1 mps 745 mmHg 93%
02:00 +14°C° 0 mm 1 mps 745 mmHg 94%
03:00 +15°C° 0 mm 1 mps 745 mmHg 93%
04:00 +15°C° 0 mm 1 mps 745 mmHg 93%
05:00 +16°C° 0 mm 1 mps 744 mmHg 92%
06:00 +19°C° 0 mm 1 mps 744 mmHg 84%
07:00 +21°C° 0 mm 1 mps 744 mmHg 75%
08:00 +23°C° 0 mm 1 mps 743 mmHg 67%
09:00 +24°C° 0 mm 2 mps 743 mmHg 59%
10:00 +26°C° 0 mm 2 mps 743 mmHg 51%
11:00 +28°C° 0 mm 2 mps 742 mmHg 43%
12:00 +28°C° 0 mm 2 mps 742 mmHg 42%
13:00 +29°C° 0 mm 2 mps 741 mmHg 40%
14:00 +29°C° 0 mm 2 mps 741 mmHg 38%
15:00 +28°C° 0.2 mm 2 mps 740 mmHg 46%
16:00 +26°C° 0.2 mm 2 mps 740 mmHg 53%
17:00 +25°C° 0.2 mm 3 mps 739 mmHg 61%
18:00 +23°C° 0.9 mm 2 mps 739 mmHg 71%
19:00 +20°C° 0.9 mm 2 mps 739 mmHg 82%
20:00 +19°C° 0.9 mm 1 mps 739 mmHg 92%
21:00 +18°C° 0.2 mm 1 mps 738 mmHg 94%
22:00 +18°C° 0.2 mm 1 mps 738 mmHg 95%
23:00 +16°C° 0.2 mm 0 mps 738 mmHg 97%

Day after tomorrow, 29 July, Thursday

Time Temperature Precipitation Wind Pressure Humidity
00:00 +18°C° 2.9 mm 1 mps 737 mmHg 97%
01:00 +18°C° 2.9 mm 1 mps 736 mmHg 98%
02:00 +18°C° 2.9 mm 1 mps 736 mmHg 99%
03:00 +18°C° 1.6 mm 1 mps 736 mmHg 99%
04:00 +18°C° 1.6 mm 1 mps 735 mmHg 98%
05:00 +18°C° 1.6 mm 1 mps 735 mmHg 98%
06:00 +18°C° 0.1 mm 1 mps 735 mmHg 98%
07:00 +19°C° 0.1 mm 1 mps 734 mmHg 97%
08:00 +19°C° 0.1 mm 1 mps 734 mmHg 96%
09:00 +19°C° 0.3 mm 2 mps 734 mmHg 91%
10:00 +20°C° 0.3 mm 2 mps 734 mmHg 85%
11:00 +21°C° 0.3 mm 2 mps 734 mmHg 79%
12:00 +23°C° 0.4 mm 2 mps 734 mmHg 76%
13:00 +22°C° 0.4 mm 3 mps 734 mmHg 72%
14:00 +24°C° 0.4 mm 3 mps 734 mmHg 69%
15:00 +24°C° 0.3 mm 3 mps 734 mmHg 71%
16:00 +22°C° 0.3 mm 3 mps 734 mmHg 74%
17:00 +21°C° 0.3 mm 3 mps 734 mmHg 77%
18:00 +20°C° 0.1 mm 3 mps 734 mmHg 80%
19:00 +19°C° 0.1 mm 2 mps 734 mmHg 84%
20:00 +18°C° 0.1 mm 2 mps 734 mmHg 87%
21:00 +17°C° 0 mm 2 mps 734 mmHg 90%
22:00 +16°C° 0 mm 2 mps 734 mmHg 93%
23:00 +16°C° 0 mm 2 mps 734 mmHg 96%

30 July, Friday

Time Temperature Precipitation Wind Pressure Humidity
00:00 +16°C° 0 mm 3 mps 734 mmHg 96%
01:00 +16°C° 0 mm 3 mps 734 mmHg 95%
02:00 +16°C° 0 mm 3 mps 734 mmHg 94%
03:00 +16°C° 0 mm 3 mps 734 mmHg 94%
04:00 +16°C° 0 mm 3 mps 734 mmHg 93%
05:00 +16°C° 0 mm 2 mps 734 mmHg 93%
06:00 +17°C° 0 mm 3 mps 734 mmHg 85%
07:00 +19°C° 0 mm 3 mps 734 mmHg 77%
08:00 +20°C° 0 mm 4 mps 734 mmHg 69%
09:00 +22°C° 0.1 mm 4 mps 734 mmHg 61%
10:00 +23°C° 0.1 mm 5 mps 734 mmHg 53%
11:00 +25°C° 0.1 mm 5 mps 734 mmHg 45%
12:00 +25°C° 0 mm 5 mps 733 mmHg 41%
13:00 +26°C° 0 mm 5 mps 733 mmHg 37%
14:00 +26°C° 0 mm 6 mps 733 mmHg 33%
15:00 +25°C° 0 mm 5 mps 733 mmHg 36%
16:00 +25°C° 0 mm 5 mps 733 mmHg 39%
17:00 +23°C° 0 mm 4 mps 733 mmHg 41%
18:00 +21°C° 0 mm 4 mps 733 mmHg 46%
19:00 +20°C° 0 mm 3 mps 733 mmHg 51%
20:00 +18°C° 0 mm 3 mps 732 mmHg 56%
21:00 +17°C° 0 mm 3 mps 732 mmHg 61%
22:00 +16°C° 0 mm 3 mps 732 mmHg 66%
23:00 +14°C° 0 mm 3 mps 732 mmHg 71%

31 July, Saturday

Time Temperature Precipitation Wind Pressure Humidity
00:00 +14°C° 0 mm 3 mps 732 mmHg 72%
01:00 +14°C° 0 mm 3 mps 731 mmHg 73%
02:00 +14°C° 0 mm 3 mps 731 mmHg 74%
03:00 +14°C° 0 mm 4 mps 731 mmHg 72%
04:00 +15°C° 0 mm 4 mps 731 mmHg 71%
05:00 +15°C° 0 mm 5 mps 730 mmHg 69%
06:00 +15°C° 0.3 mm 5 mps 730 mmHg 72%
07:00 +15°C° 0.3 mm 5 mps 730 mmHg 75%
08:00 +14°C° 0.3 mm 5 mps 730 mmHg 78%
09:00 +15°C° 0.1 mm 5 mps 731 mmHg 76%
10:00 +16°C° 0.1 mm 5 mps 731 mmHg 75%
11:00 +17°C° 0.1 mm 5 mps 731 mmHg 73%
12:00 +19°C° 0.1 mm 5 mps 731 mmHg 67%
13:00 +20°C° 0.1 mm 5 mps 732 mmHg 62%
14:00 +22°C° 0.1 mm 6 mps 732 mmHg 56%
15:00 +21°C° 0 mm 5 mps 732 mmHg 57%
16:00 +21°C° 0 mm 4 mps 732 mmHg 58%
17:00 +21°C° 0 mm 3 mps 733 mmHg 59%
18:00 +20°C° 0.1 mm 3 mps 733 mmHg 69%
19:00 +18°C° 0.1 mm 3 mps 733 mmHg 78%
20:00 +17°C° 0.1 mm 3 mps 733 mmHg 88%
21:00 +17°C° 0.1 mm 3 mps 733 mmHg 91%
22:00 +16°C° 0.1 mm 2 mps 734 mmHg 94%
23:00 +16°C° 0.1 mm 2 mps 734 mmHg 97%

1 August, Sunday

Time Temperature Precipitation Wind Pressure Humidity
00:00 +15°C° 0.1 mm 2 mps 734 mmHg 97%
01:00 +15°C° 0.1 mm 2 mps 734 mmHg 98%
02:00 +15°C° 0.1 mm 2 mps 734 mmHg 98%
03:00 +15°C° 0 mm 2 mps 734 mmHg 97%
04:00 +15°C° 0 mm 2 mps 735 mmHg 96%
05:00 +15°C° 0 mm 2 mps 735 mmHg 95%
06:00 +17°C° 0 mm 2 mps 735 mmHg 86%
07:00 +18°C° 0 mm 2 mps 735 mmHg 77%
08:00 +20°C° 0 mm 2 mps 735 mmHg 68%
09:00 +22°C° 0.1 mm 3 mps 735 mmHg 61%
10:00 +24°C° 0.1 mm 3 mps 734 mmHg 53%
11:00 +26°C° 0.1 mm 4 mps 734 mmHg 46%
12:00 +24°C° 0.3 mm 3 mps 734 mmHg 55%
13:00 +21°C° 0.3 mm 3 mps 734 mmHg 65%
14:00 +20°C° 0.3 mm 3 mps 734 mmHg 75%
15:00 +20°C° 0.8 mm 3 mps 733 mmHg 77%
16:00 +20°C° 0.8 mm 3 mps 733 mmHg 79%
17:00 +20°C° 0.8 mm 3 mps 733 mmHg 81%
18:00 +19°C° 0.3 mm 3 mps 734 mmHg 83%
19:00 +18°C° 0.3 mm 2 mps 734 mmHg 85%
20:00 +16°C° 0.3 mm 2 mps 734 mmHg 87%
21:00 +16°C° 0 mm 2 mps 734 mmHg 87%
22:00 +15°C° 0 mm 2 mps 734 mmHg 88%
23:00 +14°C° 0 mm 2 mps 734 mmHg 88%
Show more